Weather in Chebakovo

Russia / Chuvash Republic     55°58′44″N   46°21′54″E
temp.,
°C
wind,
m/s
gust,
m/s
humid.,
%
clouds,
%
prec.,
mm/h
press.,
hPa
HPBL,
m
17 may, mon
mon1700:00+16sw229479 0.0 101518
03:00+15w119391 0.5 101611
06:00+18ne1188100 0.0 101655
09:00+22ene2268100 0.0 1016446
12:00+26ene215798 0.0 1016934
15:00+27sse01533 0.0 10161260
18:00+26n11675 0.0 101612
21:00+19ene358835 0.9 101771
18 may, tue
tue1800:00+17ese228830 0.3 101721
03:00+16e228849 0.3 101730
06:00+18ese39898 0.0 1018247
09:00+23ese576810 0.0 1018532
12:00+27ese56565 0.0 10171034
15:00+28ese56525 0.0 10171108
18:00+25ese511675 0.0 1016439
21:00+21ese514765 0.0 1017344
19 may, wed
wed1900:00+19ese514735 0.0 1017309
03:00+17ese514705 0.0 1017337
06:00+17ese513725 0.0 1018371
09:00+22ese610605 0.0 1018641
12:00+24ese79515 0.0 1017985
15:00+24ese68510 0.0 10171100
18:00+22ese511610 0.0 1017557
21:00+18ese513710 0.0 1017300
20 may, thu
thu2000:00+16ese515730 0.0 1016336
03:00+15se515750 0.0 1017361
06:00+16ese513744 0.0 1016412
09:00+20ese711605 0.0 1016668
12:00+23se810550 0.0 10161186
15:00+24se710560 0.0 10151539
18:00+21se612600 0.0 1015691
21:00+17se514640 0.0 1015354
21 may, fri
fri2100:00+14se3674100 0.0 1015123
03:00+13sse228438 0.0 101622
06:00+15se2481100 0.0 1015136
09:00+19sse3470100 0.1 1015578
12:00+23s695088 1.1 10141865
15:00+22ssw610575 1.3 10141545
18:00+18ssw4107697 3.1 1013409
21:00+14ssw3108994 3.2 1014231